Home   Weather   Tucumán   Past weeks
Flag for Argentina

Past Weather in Tucumán, Tucumán, Argentina — Yesterday and Last 2 Weeks

Now
50 °F

Mostly cloudy.


Feels Like: 50 °F
Forecast: 55 / 49 °F
Wind: No wind

Location: Tucuman Aerodrome

Current Time: Jun 16, 2019 at 5:56:36 am

Latest Report: Jun 16, 2019 at 5:00 am


Visibility: 5 mi

Pressure: 30.18 "Hg

Humidity: 88%

Dew Point: 46 °F

Location of TucumánLocation

Past Weather in Tucumán — Graph

°F

Tucumán Temperature Yesterday

Maximum temperature yesterday: 57 °F (at 3:00 am)
Minimum temperature yesterday: 52 °F (at 6:00 pm)
Average temperature yesterday: 55 °F

High & Low Weather Summary for the Past Weeks

 TemperatureHumidityPressure
High75 °F (Jun 4, 4:00 pm)100% (Jun 1, 8:24 am)30.33 "Hg (Jun 1, 8:24 am)
Low45 °F (Jun 8, 8:00 am)43% (Jun 8, 1:00 pm)29.68 "Hg (Jun 6, 3:00 pm)
Average59 °F81%29.98 "Hg
* Reported Jun 1 4:00 am — Jun 16 4:00 am, Tucumán. Weather by CustomWeather, © 2019

Note: Actual official high and low records may vary slightly from our data, if they occured in-between our weather recording intervals... More about our weather records

Advertising

Tucumán Weather History for the Previous 24 Hours

Scroll right to see more
 ConditionsComfort  
Time TempWeatherWind HumidityBarometerVisibility
4:00 am
Sun, Jun 16
50 °FLow clouds.No wind88%30.21 "Hg5 mi
3:00 am50 °FMostly cloudy.3 mph94%30.21 "Hg4 mi
2:00 am50 °FMostly cloudy.5 mph94%30.21 "Hg4 mi
1:00 am50 °FDrizzle. Fog.6 mph94%30.21 "Hg3 mi
12:00 am50 °FDrizzle. Fog.7 mph94%30.21 "Hg2 mi
11:00 pm
Sat, Jun 15
52 °FDrizzle. Fog.5 mph94%30.21 "Hg2 mi
10:00 pm52 °FDrizzle. Fog.3 mph94%30.21 "Hg2 mi
9:00 pm52 °FDrizzle. Overcast.3 mph94%30.18 "Hg2 mi
8:00 pm52 °FDrizzle. Fog.3 mph94%30.15 "Hg2 mi
7:00 pm52 °FDrizzle. Fog.7 mph94%30.12 "Hg2 mi
6:00 pm52 °FDrizzle. Fog.9 mph94%30.09 "Hg1 mi
5:00 pm54 °FFog.12 mph88%30.07 "Hg1 mi
4:00 pm54 °FDrizzle. Fog.12 mph94%30.04 "Hg2 mi
3:00 pm54 °FDrizzle. Fog.12 mph94%30.04 "Hg2 mi
2:32 pm55 °FDrizzle. Fog.12 mph94%30.04 "Hg2 mi
2:18 pm55 °FDrizzle. Cloudy.10 mph94%30.04 "Hg1 mi
2:00 pm55 °FDrizzle. Fog.10 mph94%30.04 "Hg2 mi
1:00 pm55 °FLight rain. Fog.6 mph94%30.07 "Hg1 mi
12:00 pm55 °FDrizzle. Fog.No wind94%30.09 "Hg1 mi
11:00 am55 °FDrizzle. Fog.No wind94%30.09 "Hg1 mi
10:00 am55 °FDrizzle. Fog.6 mph88%30.07 "Hg1 mi
9:00 am55 °FDrizzle. Fog.9 mph94%30.04 "Hg2 mi
8:00 am55 °FDrizzle. Fog.6 mph94%30.04 "Hg2 mi
7:00 am55 °FDrizzle. Fog.6 mph94%30.01 "Hg1 mi
6:00 am55 °FDrizzle. Fog.9 mph100%29.98 "Hg1 mi
5:00 am57 °FDrizzle. Fog.No wind94%29.98 "Hg1 mi
Weather by CustomWeather, © 2019

See weather overview